This is the latest recevied weather packets stored in our database for station/object DO8TBO-15. If no packets are shown the sender has not sent any weather packets the latest 10 day(s).
| Time | Temp. | Humidity | Pressure | Rain* | Wind** | Luminosity | Snow |
|---|---|---|---|---|---|---|---|
| 1777743328 | 28.33° C | - | 1016.2 hPa | 0 mm | - | - | - |
| 1777742724 | 27.22° C | - | 1016.3 hPa | 0 mm | - | - | - |
| 1777742121 | 26.67° C | - | 1016.4 hPa | 0 mm | - | - | - |
| 1777741517 | 26.67° C | - | 1016.5 hPa | 0 mm | - | - | - |
| 1777740974 | 27.22° C | - | 1016.5 hPa | 0 mm | - | - | - |
| 1777740370 | 27.22° C | - | 1016.7 hPa | 0 mm | - | - | - |
| 1777739766 | 27.78° C | - | 1016.7 hPa | 0 mm | - | - | - |
| 1777739163 | 27.78° C | - | 1016.9 hPa | 0 mm | - | - | - |
| 1777738559 | 27.78° C | - | 1016.9 hPa | 0 mm | - | - | - |
| 1777737955 | 28.89° C | - | 1017.1 hPa | 0 mm | - | - | - |
| 1777737351 | 28.89° C | - | 1017.2 hPa | 0 mm | - | - | - |
| 1777736748 | 28.89° C | - | 1017.3 hPa | 0 mm | - | - | - |
| 1777736144 | 28.89° C | - | 1017.4 hPa | 0 mm | - | - | - |
| 1777735540 | 28.89° C | - | 1017.5 hPa | 0 mm | - | - | - |
| 1777734937 | 28.89° C | - | 1017.6 hPa | 0 mm | - | - | - |
| 1777734334 | 28.89° C | - | 1017.7 hPa | 0 mm | - | - | - |
| 1777733730 | 28.33° C | - | 1017.7 hPa | 0 mm | - | - | - |
| 1777733131 | 27.78° C | - | 1017.8 hPa | 0 mm | - | - | - |
| 1777732521 | 28.33° C | - | 1018 hPa | 0 mm | - | - | - |
| 1777731918 | 28.33° C | - | 1018.2 hPa | 0 mm | - | - | - |
| 1777731375 | 28.33° C | - | 1018.3 hPa | 0 mm | - | - | - |
| 1777730771 | 28.33° C | - | 1018.5 hPa | 0 mm | - | - | - |
| 1777730167 | 27.78° C | - | 1018.7 hPa | 0 mm | - | - | - |
| 1777729563 | 28.33° C | - | 1018.7 hPa | 0 mm | - | - | - |
| 1777728959 | 27.78° C | - | 1019 hPa | 0 mm | - | - | - |
* Rain latest hour (hover to see other rain measurements)
** Current wind speed in m/s (hover to see current wind gust speed)